Regional Weather Roundup
Issued by NWS

Home | Current Version | Previous Version | Text Only | Print | Product List | Glossary Off
Versions: 1 2 3 4 5 6 7 8 9 10 11 12 13 14 15 16 17 18 19 20 21 22 23 24 25 26 27 28 29 30 31 32 33 34 35 36 37 38 39 40 41 42 43 44 45 46 47 48 49 50

071
ASUS44 KMEG 050800
RWRTN
TENNESSEE HOURLY STATE WEATHER ROUNDUP
NATIONAL WEATHER SERVICE MEMPHIS TN
200 AM CST MON DEC 05 2016

TNZ002-004-019-021-049-052-054-088>092-050900-
WEST TENNESSEE

CITY           SKY/WX    TMP DP  RH WIND       PRES   REMARKS
MEMPHIS INTL   CLOUDY    44  40  85 NE9       30.05S
NWS MEMPHIS      N/A     43 N/A N/A MISG        N/A
JACKSON        CLOUDY    43  40  89 NE6       30.07R
DYERSBURG      CLOUDY   N/A N/A N/A E6        30.06S
PARIS          CLOUDY    39  36  87 CALM      30.06F
$$

TNZ008-025-027-028-033-062-065-066-050900-
NORTH MIDDLE TENNESSEE

CITY           SKY/WX    TMP DP  RH WIND       PRES   REMARKS
NASHVILLE      CLOUDY    45  42  89 NW6       30.06R
CLARKSVILLE    CLOUDY    42  37  82 NW5       30.07R
SMYRNA         CLOUDY    46  44  93 NW9       30.06R
CROSSVILLE     CLOUDY    44  44 100 W3        30.01S FOG
$$

TNZ061-075-076-078-094-096-097-050900-
SOUTH MIDDLE TENNESSEE

CITY           SKY/WX    TMP DP  RH WIND       PRES   REMARKS
TULLAHOMA      CLOUDY    45  45 100 CALM      30.03R
SHELBYVILLE    CLOUDY    46  46 100 N7        30.04R
$$

TNZ017-018-042-046-047-050900-
NORTHEAST TENNESSEE

CITY           SKY/WX    TMP DP  RH WIND       PRES   REMARKS
TRI CITIES     CLOUDY    45  44  97 S3        30.02R FOG
$$

TNZ012-013-036-069-073-074-050900-
CENTRAL EAST TENNESSEE

CITY           SKY/WX    TMP DP  RH WIND       PRES   REMARKS
KNOXVILLE      LGT RAIN  46  45  96 CALM      30.02S FOG
OAK RIDGE      CLOUDY    48  45  89 SW5       30.04R
GATLINBURG     CLOUDY    43  43 100 CALM      30.03R
$$

TNZ083-085-099-050900-
SOUTHEAST TENNESSEE

CITY           SKY/WX    TMP DP  RH WIND       PRES   REMARKS
CHATTANOOGA    CLOUDY    46  44  93 CALM      30.03F
$$

SKY/WX REPORTED AS FAIR MEANS FEW OR NO CLOUDS BELOW
12 THOUSAND FEET.





USA.gov is the U.S. government's official web portal to all federal, state and local government web resources and services.